Location: Courchelettes
(50.3404°N, 3.0594°E)
Time: 00:28:44
(UTC+00:00)

Daily predictions for brighter satellites

Satellite Brightness Start Highest point End
(mag) Time Altitude Azimuth Time Altitude Azimuth Time Altitude Azimuth
Cosmos 2219 Rocket 3.9 03:41:53 27° NNE 03:41:53 27° NNE 03:44:17 10° NNE
Cosmos 2237 Rocket 3.5 03:43:06 35° ESE 03:43:06 35° ESE 03:48:04 10° NE
BREEZE-M DEB (TANK) 4.2 03:55:50 74° SSW 03:55:50 74° SSW 04:00:43 10° ESE
Cosmos 2333 Rocket 3.6 04:04:36 30° NNE 04:04:36 30° NNE 04:07:30 10° NNE
Lacrosse 4 Rocket 3.7 04:04:26 22° ESE 04:04:26 22° ESE 04:07:47 10° ENE
FENGYUN 3A 4.3 04:00:10 10° NNE 04:04:52 53° ENE 04:04:52 53° ENE
Cosmos 2360 Rocket 4.0 04:15:25 19° N 04:15:25 19° N 04:17:29 10° NNE
Cosmos 1464 Rocket 4.2 04:13:47 38° SSE 04:16:09 68° E 04:22:18 10° NNE
SL-16 R/B 4.3 04:18:48 14° N 04:18:48 14° N 04:20:16 10° N
Cosmos 841 Rocket 4.0 04:16:53 55° E 04:16:53 55° E 04:21:34 10° NNE
Cosmos 1980 3.9 04:17:06 65° ESE 04:17:10 65° ESE 04:22:46 10° NE
Cosmos 2322 Rocket 4.3 04:20:13 15° N 04:20:13 15° N 04:21:46 10° N
Meteor 1-21 Rocket 4.4 04:17:53 55° NNE 04:19:04 71° ENE 04:24:55 10° SSE
COSMOS 2428 3.5 04:25:09 40° N 04:25:09 40° N 04:28:56 10° NNE
Cosmos 1072 Rocket 4.5 04:22:08 52° S 04:23:50 83° E 04:30:14 10° N
ATLAS CENTAUR R/B 3.0 04:31:44 28° E 04:31:44 28° E 04:34:17 10° ENE
METEOR-M 4.3 04:27:21 10° NNE 04:32:43 72° ESE 04:34:34 41° S
Cosmos 2150 Rocket 4.5 04:33:50 38° N 04:35:42 61° ENE 04:41:04 10° SE
Cosmos 2084 Rocket 4.4 04:37:18 44° SE 04:37:18 44° SE 04:40:25 10° SE
ALOS 3.5 04:35:25 10° NNE 04:37:53 31° N 04:37:53 31° N
Cosmos 1602 Rocket 4.1 04:40:25 45° NNE 04:41:29 59° ENE 04:45:54 10° SSE
USA 215 3.3 04:35:41 10° ENE 04:42:05 61° NNW 04:43:15 53° WNW
ADEOS 3.7 04:37:52 10° NNE 04:43:07 72° ESE 04:47:40 14° S
GEOS 3 Rocket 4.2 04:39:36 10° ESE 04:44:50 54° NE 04:46:53 35° NNW
USA 307 4.0 04:44:43 38° SSE 04:44:54 38° SE 04:48:50 10° ENE
NOSS 0 Rocket 3.8 04:45:40 64° WSW 04:46:32 74° WNW 04:52:44 10° NNE
Cosmos 1328 4.4 04:46:59 53° E 04:46:59 53° E 04:50:34 10° SSE
Nadezhda 4 Rocket 3.8 04:41:29 10° N 04:47:38 83° W 04:53:45 10° S
CZ-2C R/B 4.2 04:42:53 10° N 04:44:42 21° N 04:44:42 21° N
USA 305 3.7 04:50:49 42° SSE 04:51:09 43° SE 04:55:11 10° ENE
USA 308 3.8 04:53:17 41° SSE 04:53:51 43° SE 04:57:56 10° ENE
Cosmos 1943 Rocket 2.7 04:51:10 23° NNW 04:54:43 57° NE 05:00:18 10° SE
Cosmos 1400 Rocket 3.2 04:53:20 33° SSE 04:55:01 63° E 04:59:08 10° NNE
SL-4 R/B 2.6 04:55:30 46° SE 04:55:30 46° SE 04:59:10 10° ENE
Cosmos 2034 Rocket 3.9 04:51:21 10° S 04:57:44 86° W 05:04:07 10° N
Meteor 1-16 Rocket 4.3 04:52:44 10° S 04:58:40 84° E 05:04:37 10° NNE
Cosmos 1570 Rocket 3.8 04:57:36 51° SW 04:58:57 82° WNW 05:04:15 10° NNE
SJ-12 4.0 04:57:14 10° NNE 05:01:24 76° ESE 05:04:12 20° S
Cosmos 540 Rocket 3.4 05:01:40 61° WNW 05:01:43 61° WNW 05:06:50 10° NNE
Cosmos 2298 Rocket 3.9 05:00:28 40° NNW 05:02:29 82° WSW 05:07:48 10° SSE
CZ-2C R/B 4.3 04:58:08 10° SE 05:02:47 32° ENE 05:07:33 10° N
USA 306 3.5 05:02:36 44° S 05:03:22 50° SE 05:07:29 10° ENE
Cosmos 2369 Rocket 3.2 05:00:31 14° NNW 05:05:02 44° NE 05:10:22 10° ESE
Cosmos 1125 Rocket 3.6 05:01:52 23° NNW 05:05:15 76° ENE 05:10:34 10° SSE
NOSS 3-2 (A) 3.9 05:00:28 13° SSW 05:05:24 57° SE 05:11:49 10° NE
Cosmos 1814 Rocket 3.8 05:03:50 42° SW 05:05:37 80° WNW 05:10:48 10° NNE
CZ-4B R/B 3.2 05:06:53 10° NNE 05:10:29 59° ESE 05:14:12 10° S
Cosmos 1461 4.1 05:11:24 33° NNW 05:11:24 33° NNW 05:15:15 10° NNE
CZ-4B R/B 4.0 05:07:51 10° N 05:12:20 69° WNW 05:13:34 45° SW
COSMO-SKYMED 1 2.5 05:08:18 10° S 05:12:33 62° WSW 05:12:33 62° WSW
PSLV R/B 4.0 05:10:31 10° SSE 05:14:39 80° ENE 05:17:58 16° NNW
Cosmos 2278 Rocket 4.2 05:18:36 12° SSW 05:18:36 12° SSW 05:19:07 10° SSW
Cosmos 2228 4.3 05:14:14 10° SSE 05:18:13 41° E 05:22:13 10° NNE
SL-16 R/B 2.5 05:13:06 10° SSW 05:18:43 67° ESE 05:24:21 10° NNE
NOSS 3-2 (C) 4.4 05:13:48 10° S 05:19:09 45° ESE 05:25:16 10° NE
Cosmos 972 Rocket 4.4 05:17:03 10° SSW 05:23:16 79° ESE 05:28:48 10° NNE
Cosmos 2219 Rocket 3.4 05:23:36 23° NW 05:23:36 23° NW 05:27:49 10° NNE
Cosmos 2026 Rocket 4.0 05:16:57 10° N 05:23:22 89° E 05:29:45 10° S
ATLAS 5 CENTAUR R/B 4.0 05:25:46 12° SSW 05:25:46 12° SSW 05:26:45 10° S
ERS-2 2.0 05:21:39 10° S 05:25:10 60° WSW 05:25:10 60° WSW
CENTAUR R/B 3.3 05:20:35 10° SSW 05:26:21 54° ESE 05:33:12 10° NE
Cosmos 2237 Rocket 2.4 05:24:59 35° WSW 05:26:53 48° NW 05:32:26 10° NNE
Cosmos 2208 Rocket 4.0 05:23:25 22° SW 05:26:57 61° WNW 05:32:20 10° NNE
H-2A R/B 2.8 05:23:45 10° NNE 05:27:29 73° ESE 05:31:14 10° S
Cosmos 1953 4.2 05:32:23 17° NNW 05:32:23 17° NNW 05:33:31 10° N
Meteor PRIRODA 3.4 05:28:31 10° NNE 05:32:10 82° WNW 05:35:48 10° SSW
Cosmos 1606 Rocket 4.3 05:30:25 10° S 05:34:38 55° E 05:38:53 10° NNE
Lacrosse 4 Rocket 1.5 05:40:48 29° WSW 05:42:46 55° NW 05:47:07 10° NNE
Meteor 1-11 4.2 05:38:41 10° NNW 05:44:11 61° W 05:49:40 10° S
Cosmos 1300 2.6 05:42:41 10° S 05:46:30 87° W 05:50:21 10° N
Cosmos 2333 Rocket 3.7 05:46:36 18° NW 05:47:20 18° NNW 05:51:09 10° N
SAR-Lupe-4 3.9 05:45:29 10° S 05:48:54 42° W 05:50:19 28° NW
deb Chang Zheng 4 3.6 05:45:46 10° N 05:49:53 49° WNW 05:53:58 10° SW
Cosmos 1315 Rocket 2.7 05:47:09 10° S 05:51:03 87° ESE 05:55:01 10° NNE
Meteor 1-31 Rocket 3.9 05:49:55 10° N 05:52:39 25° NW 05:52:39 25° NW
Cosmos 2297 4.2 05:50:12 19° NW 05:53:50 40° WSW 05:59:09 10° S
Cosmos 1346 Rocket 3.2 05:54:23 16° NNW 05:57:17 41° W 06:01:02 10° SSW
MOS 1 Rocket 3.9 05:54:02 10° SSW 05:58:21 33° W 06:02:29 10° NNW
Cosmos 2360 Rocket 4.2 05:57:10 10° NNW 05:58:37 11° NNW 06:00:09 10° N
Cosmos 841 Rocket 4.4 05:57:01 22° W 05:58:45 27° NW 06:03:09 10° N
USA 238 DEB 3.6 05:54:27 10° SW 06:01:05 85° NW 06:08:05 10° NE
USA 238 3.6 05:54:34 10° SW 06:01:11 85° NW 06:08:12 10° NE
Cosmos 836 Rocket 4.5 05:56:06 10° SSW 06:01:22 86° WNW 06:06:39 10° NNE
Cosmos 1758 Rocket 4.0 05:57:56 10° NNW 06:02:09 40° W 06:06:18 10° SSW
FALCON 9 DEB 3.4 06:01:26 27° WNW 06:03:00 52° N 06:06:21 10° ENE
Cosmos 1689 Rocket 3.3 06:05:15 10° SSW 06:07:23 23° WSW 06:07:23 23° WSW
Cosmos 1441 Rocket 3.9 06:04:56 10° N 06:08:52 57° ENE 06:12:42 10° SSE
COSMOS 2428 4.3 06:07:11 15° NW 06:08:53 17° NNW 06:12:33 10° N
ATLAS CENTAUR R/B 1.7 06:07:57 21° W 06:09:49 35° NW 06:13:15 10° NNE
SL-19 R/B 4.3 06:10:06 10° NNE 06:13:54 71° ESE 06:17:11 10° S
BREEZE M DEB (TANK) 3.4 06:12:10 10° SW 06:14:27 38° SSE 06:19:15 10° E
ALOS 4.0 06:14:34 10° NNW 06:16:23 13° NW 06:16:23 13° NW
MOS 1-B 4.5 06:10:59 10° NNE 06:16:48 82° ESE 06:22:35 10° SSW
YAOGAN 6 2.9 06:14:11 10° N 06:17:44 44° WNW 06:21:16 10° SW
Cosmos 1892 2.6 06:13:56 10° NNW 06:17:48 79° W 06:21:39 10° S
Cosmos 1184 Rocket 4.0 06:15:07 10° N 06:18:16 44° ENE 06:21:25 10° SSE
Spot 2 3.9 06:14:28 10° NNE 06:18:32 88° WNW 06:22:39 10° SSW
Cosmos 1726 Rocket 3.4 06:14:34 10° SSW 06:18:52 69° WNW 06:23:12 10° N
Cosmos 2058 Rocket 3.2 06:16:29 10° S 06:20:53 81° E 06:25:21 10° NNE
Cosmos 1603 4.4 06:16:25 10° S 06:21:55 59° ESE 06:27:29 10° NE
FALCON 9 DEB 3.2 06:19:25 10° SW 06:22:29 63° SSE 06:25:33 10° ENE
GEOS 3 Rocket 4.2 06:17:54 10° SSE 06:22:58 41° WSW 06:27:59 10° NW
USA 215 3.7 06:18:22 10° ENE 06:24:37 50° N 06:30:36 11° WNW
USA 307 2.9 06:20:52 12° WSW 06:24:46 71° NNW 06:29:00 10° ENE
CZ-4B DEB 4.2 06:22:16 10° NNE 06:27:51 73° WNW 06:33:22 10° SSW
In-Cosmos 22 Rocket 4.2 06:22:45 10° NNW 06:28:09 60° W 06:33:23 10° S
PSLV R/B 4.1 06:24:42 10° N 06:28:33 46° WNW 06:32:27 10° SW
Cosmos 2292 Rocket 3.2 06:27:07 10° NNW 06:29:58 41° W 06:33:11 10° SSW
Cosmos 2279 Rocket 4.0 06:24:52 10° SSW 06:31:03 62° WNW 06:37:17 10° N
USA 305 2.9 06:26:57 11° W 06:31:03 66° NNW 06:35:17 10° ENE
FALCON 9 DEB 3.2 06:28:08 10° WSW 06:31:15 65° SSE 06:34:22 10° ENE
Cosmos 1408 2.4 06:27:56 10° NNW 06:31:32 75° W 06:35:08 10° S
Cosmos 1400 Rocket 4.4 06:29:22 10° W 06:31:57 16° WNW 06:34:32 10° NNW
Cosmos 2098 Rocket 4.3 06:28:45 10° NNW 06:33:40 30° W 06:37:43 10° SW
USA 308 3.0 06:29:31 10° W 06:33:48 66° NNW 06:38:04 10° ENE
Okean O Rocket 1.8 06:29:29 10° NNE 06:33:52 79° ESE 06:38:12 10° SSW
SL-4 R/B 1.9 06:31:05 11° W 06:34:49 77° N 06:39:02 10° E
SMAP 3.0 06:31:17 10° N 06:35:57 75° WNW 06:40:35 10° SSW
Cosmos 2263 4.3 06:32:00 10° NW 06:37:36 61° WSW 06:43:12 10° SSE
Cosmos 1943 Rocket 3.1 06:33:22 10° NW 06:38:08 29° WSW 06:42:55 10° SSW
H-2A R/B 2.6 06:35:40 10° N 06:40:09 67° WNW 06:44:37 10° SSW
Iridium 4 Rocket 4.2 06:35:51 10° S 06:41:40 74° E 06:47:35 10° N
Cosmos 1939 Rocket 3.2 06:38:55 10° NNE 06:42:51 69° ESE 06:46:41 10° S
CZ-2C R/B 3.0 06:37:52 10° S 06:42:55 45° W 06:48:08 10° NNW
USA 306 3.0 06:39:09 10° W 06:43:21 61° NNW 06:47:34 10° ENE
Envisat 3.5 06:39:49 10° N 06:44:29 37° WNW 06:49:07 10° SW
CZ-4B R/B 4.3 06:43:10 10° NNW 06:45:13 15° WNW 06:47:18 10° W
Cosmos 2369 Rocket 2.8 06:43:53 10° NW 06:49:01 38° WSW 06:54:07 10° S
Cosmos 1076 Rocket 3.7 06:45:17 10° N 06:49:34 78° E 06:53:49 10° SSE
Cosmos 773 Rocket 4.1 06:44:41 10° SSW 06:49:55 86° ESE 06:55:10 10° NNE
Meteor 2-10 Rocket 3.8 06:49:30 10° SSW 06:55:17 67° WNW 07:01:01 10° N
NOSS 3-2 (A) 3.9 06:50:48 10° WSW 06:56:30 45° NNW 07:03:08 10° NE
